GORIZONT 7 [-]

Last updated on Jan. 16, 2021, 6:28 a.m. UTC

1 14160U 83066A   21014.96136437 -.00000052  00000-0  00000-0 0  9990
2 14160  13.0551 328.3285 0011807 316.5057 216.9659  0.98347324135281
UTC
Height (km)
Latitude
Longitude
Inclination
Orbital Period
UTC large
Height (km)
Speed (km/s)
/
Latitude / Longitude
Inclination (degrees)
Orbital Period (minutes)
Azimuth
Elevation
Range (km)
Doppler Factor
iOS Compass Heading
iOS Angle

Next 30 passes for location: Hong Kong

Rise time Rise Azimuth (degrees) Set time Set Azimuth (degrees) Duration Max altitude (degrees)

No matching passes for this satellites